Погода в Шмыреве

Россия / Курская область     51°08′11″N   35°56′03″E
темп.,
°C
ветер,
м/с
пор.,
м/с
влажн.,
%
обл.,
%
осадки,
мм/ч
давл.,
гПа
погр.,
м
8 марта, пн
пн800:00−1зюз81492100 0.2 1007875
03:00−2зюз7139399 0.4 1006650
06:00−2зюз71396100 0.3 1006797
09:00−2з71196100 1.4 1006808
12:00−1зсз6985100 0.6 10071012
15:00−1зсз588091 0.8 10081098
18:00−4зсз368763 0.1 1009114
21:00−6з349174 0.1 101190
9 марта, вт
вт900:00−7зсз339364 0.0 101165
03:00−8зсз359662 0.0 1012102
06:00−9сз479396 0.1 1013205
09:00−9сз489479 0.1 1015274
12:00−7ссз578995 0.0 1017586
15:00−7ссз568598 0.1 1019792
18:00−9ссз3789100 0.1 1020365
21:00−11сз239479 0.1 102253
10 марта, ср
ср1000:00−12сз359121 0.0 102496
03:00−14сз239310 0.0 102561
06:00−14ссз23920 0.0 102639
09:00−12сз12899 0.0 1027111
12:00−9зсз228043 0.0 1026356
15:00−7з227442 0.0 1026531
18:00−9зсз128538 0.0 102521
21:00−10зсз118446 0.0 102621
11 марта, чт
чт1100:00−10з128486 0.0 102621
03:00−10с118589 0.0 102721
06:00−11всв239481 0.0 102835
09:00−9в349584 0.1 1029213
12:00−6вюв459199 0.1 1029480
15:00−5вюв4484100 0.3 1029549
18:00−7в478789 0.0 1028169
21:00−9вюв498644 0.0 1028203
12 марта, пт
пт1200:00−9юв511820 0.0 1028285
03:00−8ююв512795 0.0 1027324
06:00−7ююв61477100 0.0 1025467
09:00−5ююв81575100 0.0 1023846
12:00−3ю101667100 0.0 10211299
15:00−3ю121971100 0.3 10181207
18:00−4ю111992100 0.4 10151118
21:00−3ю111794100 2.1 10131054